Regional Weather Roundup
Issued by NWS

Home | Current Version | Previous Version | Text Only | Print | Product List | Glossary On
Versions: 1 2 3 4 5 6 7 8 9 10 11 12 13 14 15 16 17 18 19 20 21 22 23 24 25 26 27 28 29 30 31 32 33 34 35 36 37 38 39 40 41 42 43 44 45 46 47 48 49 50
000
ASCA42 TJSJ 211511
RWRPR
PUERTO RICO/U.S. VIRGIN ISLANDS HOURLY WEATHER ROUNDUP
NATIONAL WEATHER SERVICE SAN JUAN PR
1100 AM AST TUE OCT 21 2014

PRZ001-004-211600-
PUERTO RICO

CITY           SKY/WX    TMP DP  RH WIND       PRES   REMARKS
SAN JUAN LMM   MOSUNNY   88  75  66 NE12      29.97F HX  97
AGUADILLA      MOSUNNY   88  73  62 E12G18    30.00S HX  96
CEIBA          MOSUNNY   86  75  70 E7        30.01S HX  95
$$

PRZ006-007-211600-
U.S. VIRGIN ISLANDS

CITY           SKY/WX    TMP DP  RH WIND       PRES   REMARKS
CHRISTIANSTED  MOSUNNY   88  73  62 E16       29.99S HX  96
$$

HOURLY WEATHER ROUNDUP FOR THE NEWS MEDIA

CITY           SKY/WX    TMP DP  RH WIND       PRES   REMARKS
MIAMI          CLOUDY    80  72  76 S5        29.98R
ORLANDO        CLOUDY    78  72  81 CALM      29.98S
NEW YORK       PTSUNNY   66  49  54 E8        29.90S
NEWARK         PTSUNNY   62  48  60 NE5       29.89F
CHICAGO        PTSUNNY   49  40  71 N13       30.15R
HARTFORD       PTSUNNY   62  56  80 SE15      29.94F
BOSTON         CLOUDY    59  53  80 E7        29.96F
DALLAS         MOSUNNY   69  59  70 CALM      30.12R
PHILADELPHIA   PTSUNNY   61  51  70 SW3       29.88F


USA.gov is the U.S. government's official web portal to all federal, state and local government web resources and services.